TimeCDT,TemperatureF,Dew PointF,Humidity,Sea Level PressureIn,VisibilityMPH,Wind Direction,Wind SpeedMPH,Gust SpeedMPH,PrecipitationIn,Events,Conditions,WindDirDegrees,DateUTC
12:31 AM,78.8,73.4,83,29.88,10.0,SSE,12.7,-,N/A,,Overcast,160,2013-05-21 05:31:00
12:53 AM,78.1,73.0,84,29.88,10.0,SSE,11.5,-,N/A,,Overcast,160,2013-05-21 05:53:00
1:53 AM,78.1,73.0,84,29.88,10.0,SSE,11.5,18.4,N/A,,Overcast,160,2013-05-21 06:53:00
2:53 AM,77.0,72.0,84,29.86,10.0,SSE,12.7,-,N/A,,Overcast,160,2013-05-21 07:53:00
3:33 AM,77.0,73.4,89,29.87,10.0,SSE,9.2,-,N/A,,Overcast,160,2013-05-21 08:33:00
3:53 AM,77.0,73.0,88,29.88,10.0,SSE,8.1,-,N/A,,Overcast,160,2013-05-21 08:53:00
4:53 AM,75.9,72.0,87,29.86,10.0,SSE,11.5,-,N/A,,Mostly Cloudy,150,2013-05-21 09:53:00
5:53 AM,75.9,73.0,91,29.86,10.0,SSE,11.5,-,N/A,,Overcast,150,2013-05-21 10:53:00
6:53 AM,75.9,72.0,87,29.87,10.0,SSE,10.4,-,N/A,,Mostly Cloudy,160,2013-05-21 11:53:00
7:53 AM,78.1,73.0,84,29.88,10.0,SSE,13.8,21.9,N/A,,Overcast,150,2013-05-21 12:53:00
8:35 AM,80.6,73.4,79,29.89,10.0,South,12.7,23.0,N/A,,Mostly Cloudy,170,2013-05-21 13:35:00
8:50 AM,80.6,73.4,79,29.89,10.0,SSE,17.3,24.2,N/A,,Mostly Cloudy,150,2013-05-21 13:50:00
8:53 AM,80.1,73.0,79,29.89,10.0,SSE,16.1,26.5,N/A,,Mostly Cloudy,160,2013-05-21 13:53:00
9:53 AM,80.1,73.0,79,29.89,10.0,SSE,17.3,28.8,N/A,,Overcast,160,2013-05-21 14:53:00
10:53 AM,82.0,73.0,74,29.89,10.0,SSE,19.6,27.6,N/A,,Mostly Cloudy,160,2013-05-21 15:53:00
11:53 AM,82.9,73.0,72,29.88,10.0,South,17.3,27.6,N/A,,Mostly Cloudy,170,2013-05-21 16:53:00
12:49 PM,84.2,73.4,70,29.88,10.0,SSE,17.3,24.2,N/A,,Mostly Cloudy,160,2013-05-21 17:49:00
12:53 PM,82.9,73.0,72,29.88,10.0,SSE,17.3,21.9,N/A,,Mostly Cloudy,160,2013-05-21 17:53:00
1:49 PM,82.4,73.4,74,29.87,10.0,South,17.3,-,N/A,,Overcast,170,2013-05-21 18:49:00
1:53 PM,82.9,73.0,72,29.87,10.0,South,17.3,-,N/A,,Overcast,170,2013-05-21 18:53:00
2:53 PM,81.0,73.0,77,29.85,10.0,SSE,10.4,-,N/A,,Overcast,160,2013-05-21 19:53:00
3:14 PM,80.6,73.4,79,29.84,10.0,SSE,13.8,-,N/A,,Overcast,160,2013-05-21 20:14:00
3:53 PM,81.0,73.9,79,29.83,10.0,South,12.7,-,N/A,,Overcast,170,2013-05-21 20:53:00
4:53 PM,81.0,73.9,79,29.81,10.0,SSE,10.4,-,N/A,,Overcast,160,2013-05-21 21:53:00
5:15 PM,80.6,73.4,79,29.79,10.0,SSE,17.3,24.2,N/A,,Overcast,160,2013-05-21 22:15:00
5:41 PM,80.6,73.4,79,29.77,10.0,South,15.0,21.9,N/A,,Overcast,170,2013-05-21 22:41:00
5:53 PM,80.1,73.9,81,29.76,10.0,SSE,15.0,25.3,N/A,,Overcast,160,2013-05-21 22:53:00
6:53 PM,79.0,73.9,84,29.76,9.0,SSE,16.1,21.9,N/A,,Overcast,160,2013-05-21 23:53:00
7:53 PM,79.0,73.9,84,29.79,8.0,SSE,12.7,-,N/A,,Overcast,160,2013-05-22 00:53:00
8:00 PM,78.8,73.4,83,29.80,8.0,South,9.2,-,N/A,,Overcast,170,2013-05-22 01:00:00
8:46 PM,78.8,73.4,83,29.82,9.0,SSE,6.9,-,N/A,,Overcast,160,2013-05-22 01:46:00
8:53 PM,78.1,73.9,87,29.83,9.0,SSW,9.2,-,0.00,Rain,Light Rain,200,2013-05-22 01:53:00
9:14 PM,78.8,73.4,83,29.83,9.0,South,5.8,-,0.00,,Overcast,170,2013-05-22 02:14:00
9:53 PM,77.0,73.9,90,29.84,8.0,South,6.9,-,0.00,,Overcast,170,2013-05-22 02:53:00
10:46 PM,77.0,73.4,89,29.85,8.0,SSE,6.9,-,N/A,,Overcast,150,2013-05-22 03:46:00
10:53 PM,75.9,73.9,94,29.86,7.0,SSE,4.6,-,N/A,,Mostly Cloudy,160,2013-05-22 03:53:00
11:16 PM,75.2,73.4,94,29.86,8.0,SSE,3.5,-,N/A,,Overcast,160,2013-05-22 04:16:00
11:44 PM,77.0,73.4,89,29.86,7.0,SSE,5.8,-,N/A,,Overcast,150,2013-05-22 04:44:00
11:53 PM,77.0,73.9,90,29.86,8.0,SSE,5.8,-,N/A,,Overcast,160,2013-05-22 04:53:00